Location: Maiden
(35.5760°N, 81.2120°W)
Time: 02:10:54
(UTC-04:00)

Vanguard 2 - Pass Details

Date: 07 August 2020
Orbit: 553 x 2937 km, 32.9° (Epoch: 20 September)

Event Time Altitude Azimuth Distance (km) Brightness Sun altitude
Rises 03:29:18 0° 279° (W) 5,090 - -31.0°
Reaches altitude 10° 03:33:26 10° 274° (W) 3,684 - -30.6°
Maximum altitude 03:41:40 45° 206° (SSW) 1,370 - -29.6°
Drops below altitude 10° 03:46:50 10° 133° (SE) 2,327 - -29.0°
Exits shadow 03:48:23 - 128° (SE) 2,878 10.5 -28.8°
Sets 03:48:55 0° 126° (SE) 3,075 10.7 -28.7°
